Location: The Saddle
(36.8333°N, 80.3417°W)
Time: 08:58:51
(UTC-05:00)

Altair - All Passes

Search period start: 04 December 2023 00:00
Search period end: 14 December 2023 00:00
Orbit: 1501 x 1682 km, 47.2° (Epoch: 03 December)

Date Brightness Start Highest point End Pass type
(mag) Time Alt. Az. Time Alt. Az. Time Alt. Az.
04 Dec - 06:21:43 10° S 06:29:29 27° SE 06:37:02 10° ENE visible
04 Dec - 08:23:34 10° SW 08:33:23 85° SE 08:42:51 10° ENE daylight
04 Dec - 10:29:36 10° W 10:38:50 49° NNW 10:47:47 10° ENE daylight
04 Dec - 12:36:11 10° WNW 12:45:11 48° NNE 12:53:59 10° E daylight
04 Dec - 14:41:21 10° WNW 14:50:40 89° SSW 14:59:51 10° SE daylight
04 Dec - 16:47:07 10° WNW 16:54:27 28° SW 17:01:49 10° S daylight
05 Dec - 05:56:59 10° S 06:04:22 24° SE 06:11:34 10° ENE visible
05 Dec - 07:58:21 10° SW 08:08:11 80° SE 08:17:39 10° ENE daylight
05 Dec - 10:04:12 10° W 10:13:32 51° NNW 10:22:33 10° ENE daylight
05 Dec - 12:10:53 10° WNW 12:19:53 47° N 12:28:39 10° E daylight
05 Dec - 14:16:08 10° WNW 14:25:28 86° NNE 14:34:39 10° ESE daylight
05 Dec - 16:21:43 10° WNW 16:29:23 31° SW 16:37:03 10° S daylight
06 Dec - 05:32:19 10° S 05:39:16 22° SE 05:46:02 10° E visible
06 Dec - 07:33:09 10° SW 07:42:59 75° SE 07:52:27 10° ENE daylight
06 Dec - 09:38:49 10° W 09:48:13 53° NNW 09:57:19 10° ENE daylight
06 Dec - 11:45:33 10° WNW 11:54:34 46° N 12:03:19 10° E daylight
06 Dec - 13:50:55 10° WNW 14:00:16 81° NNE 14:09:27 10° ESE daylight
06 Dec - 15:56:21 10° WNW 16:04:17 34° SW 16:12:13 10° S daylight
07 Dec - 05:07:45 10° SSE 05:14:10 19° SE 05:20:26 10° E visible
07 Dec - 07:07:59 10° SW 07:17:47 70° SE 07:27:14 10° ENE daylight
07 Dec - 09:13:26 10° W 09:22:55 55° NNW 09:32:05 10° ENE daylight
07 Dec - 11:20:13 10° WNW 11:29:14 45° N 11:38:01 10° ENE daylight
07 Dec - 13:25:41 10° WNW 13:35:03 77° NNE 13:44:13 10° ESE daylight
07 Dec - 15:31:00 10° WNW 15:39:11 37° SW 15:47:22 10° SSE daylight
08 Dec - 04:43:17 10° SSE 04:49:04 17° SE 04:54:45 10° E visible
08 Dec - 06:42:50 10° SW 06:52:36 65° SE 07:02:01 10° ENE visible
08 Dec - 08:48:02 10° W 08:57:37 57° NNW 09:06:52 10° ENE daylight
08 Dec - 10:54:53 10° WNW 11:03:55 45° N 11:12:41 10° ENE daylight
08 Dec - 13:00:27 10° WNW 13:09:50 72° NNE 13:18:59 10° ESE daylight
08 Dec - 15:05:40 10° WNW 15:14:05 41° SW 15:22:27 10° SSE daylight
09 Dec - 04:18:59 10° SSE 04:23:59 15° ESE 04:28:54 10° E visible
09 Dec - 06:17:42 10° SW 06:27:25 60° SE 06:36:47 10° ENE visible
09 Dec - 08:22:40 10° WSW 08:32:20 60° NNW 08:41:39 10° ENE daylight
09 Dec - 10:29:31 10° WNW 10:38:35 45° N 10:47:22 10° ENE daylight
09 Dec - 12:35:13 10° WNW 12:44:35 69° NNE 12:53:44 10° ESE daylight
09 Dec - 14:40:22 10° WNW 14:48:59 45° SW 14:57:31 10° SSE daylight
10 Dec - 03:54:55 10° SSE 03:58:53 13° ESE 04:02:49 10° E visible
10 Dec - 05:52:36 10° SSW 06:02:14 56° SE 06:11:32 10° ENE visible
10 Dec - 07:57:18 10° WSW 08:07:03 63° NNW 08:16:27 10° ENE daylight
10 Dec - 10:04:09 10° WNW 10:13:15 44° N 10:22:04 10° ENE daylight
10 Dec - 12:09:58 10° WNW 12:19:21 65° NNE 12:28:28 10° ESE daylight
10 Dec - 14:15:05 10° WNW 14:23:52 50° SW 14:32:33 10° SSE daylight
11 Dec - 03:31:24 10° SE 03:33:49 11° ESE 03:36:11 10° ESE visible
11 Dec - 05:27:32 10° SSW 05:37:04 51° SE 05:46:18 10° ENE visible
11 Dec - 07:31:56 10° WSW 07:41:46 66° NNW 07:51:14 10° ENE daylight
11 Dec - 09:38:46 10° WNW 09:47:55 45° N 09:56:45 10° ENE daylight
11 Dec - 11:44:43 10° WNW 11:54:05 62° NNE 12:03:11 10° ESE daylight
11 Dec - 13:49:48 10° WNW 13:58:44 54° SW 14:07:33 10° SSE daylight
11 Dec - 15:59:21 10° WSW 16:01:50 11° WSW 16:04:19 10° SW daylight
12 Dec - 05:02:30 10° SSW 05:11:54 47° SE 05:21:01 10° ENE visible
12 Dec - 07:06:36 10° WSW 07:16:30 69° NNW 07:26:03 10° ENE daylight
12 Dec - 09:13:22 10° WNW 09:22:34 45° N 09:31:28 10° ENE daylight
12 Dec - 11:19:27 10° WNW 11:28:49 59° NNE 11:37:54 10° E daylight
12 Dec - 13:24:31 10° WNW 13:33:36 59° SW 13:42:31 10° SE daylight
12 Dec - 15:32:54 10° W 15:36:47 13° WSW 15:40:40 10° SSW daylight
13 Dec - 04:37:30 10° SSW 04:46:45 43° SE 04:55:44 10° ENE visible
13 Dec - 06:41:17 10° WSW 06:51:14 73° NNW 07:00:50 10° ENE visible
13 Dec - 08:47:58 10° WNW 08:57:14 45° N 09:06:10 10° ENE daylight
13 Dec - 10:54:11 10° WNW 11:03:33 57° NNE 11:12:36 10° E daylight
13 Dec - 12:59:16 10° WNW 13:08:28 64° SW 13:17:28 10° SE daylight
13 Dec - 15:06:53 10° W 15:11:44 15° WSW 15:16:33 10° SSW daylight
